******** Week 149 almanac for PRN-1 ******** ID: 1 Health: 0 Eccentricity: 0.01139736176 Time of Applicability(s): 503808 Orbital Inclination(rad): 0.9867654992 Rate of Right Ascen(r/s): -7.794610391e-09 SQRT(A) (m 1/2): 5153.625 Right Ascen at Week(rad): -1.913384496 Argument of Perigee(rad): 0.8814547224 Mean Anom(rad): -0.9969687938 Af0(s): 0.0003383997681 Af1(s/s): -1.091394e-11 week: 149 ******** Week 149 almanac for PRN-2 ******** ID: 2 Health: 0 Eccentricity: 0.02065992355 Time of Applicability(s): 503808 Orbital Inclination(rad): 0.9651159969 Rate of Right Ascen(r/s): -7.874613723e-09 SQRT(A) (m 1/2): 5153.647461 Right Ascen at Week(rad): -2.002736256 Argument of Perigee(rad): -1.440741272 Mean Anom(rad): -0.8542295595 Af0(s): -0.0005147595581 Af1(s/s): 0 week: 149 ******** Week 149 almanac for PRN-3 ******** ID: 3 Health: 0 Eccentricity: 0.00389289856 Time of Applicability(s): 503808 Orbital Inclination(rad): 0.972474311 Rate of Right Ascen(r/s): -8.194627053e-09 SQRT(A) (m 1/2): 5153.622559 Right Ascen at Week(rad): -0.8778845469 Argument of Perigee(rad): 0.9565418836 Mean Anom(rad): -2.149934371 Af0(s): -0.0001009923584 Af1(s/s): -1.818989e-11 week: 149 ******** Week 149 almanac for PRN-4 ******** ID: 4 Health: 0 Eccentricity: 0.001702308655 Time of Applicability(s): 503808 Orbital Inclination(rad): 0.9615986269 Rate of Right Ascen(r/s): -7.737465153e-09 SQRT(A) (m 1/2): 5153.610352 Right Ascen at Week(rad): 0.2032179998 Argument of Perigee(rad): -3.05563318 Mean Anom(rad): 0.7792798424 Af0(s): -0.0001492275146 Af1(s/s): 3.637979e-12 week: 149 ******** Week 149 almanac for PRN-5 ******** ID: 5 Health: 0 Eccentricity: 0.005871295929 Time of Applicability(s): 503808 Orbital Inclination(rad): 0.9594474585 Rate of Right Ascen(r/s): -8.331775623e-09 SQRT(A) (m 1/2): 5153.610352 Right Ascen at Week(rad): -0.9183387961 Argument of Perigee(rad): 1.008547053 Mean Anom(rad): 1.656897366 Af0(s): -5.652557373e-05 Af1(s/s): 0 week: 149 ******** Week 149 almanac for PRN-6 ******** ID: 6 Health: 0 Eccentricity: 0.002697944641 Time of Applicability(s): 503808 Orbital Inclination(rad): 0.9861483116 Rate of Right Ascen(r/s): -7.748894201e-09 SQRT(A) (m 1/2): 5153.627441 Right Ascen at Week(rad): -1.921656608 Argument of Perigee(rad): -0.9540087181 Mean Anom(rad): -0.6733040905 Af0(s): 0.0001627936523 Af1(s/s): 1.091394e-11 week: 149 ******** Week 149 almanac for PRN-7 ******** ID: 7 Health: 0 Eccentricity: 0.01555013657 Time of Applicability(s): 503808 Orbital Inclination(rad): 0.9507768718 Rate of Right Ascen(r/s): -8.023191341e-09 SQRT(A) (m 1/2): 5153.637207 Right Ascen at Week(rad): 1.221901086 Argument of Perigee(rad): -2.290303725 Mean Anom(rad): -1.667928845 Af0(s): 0.0002456978271 Af1(s/s): 3.637979e-12 week: 149 ******** Week 149 almanac for PRN-8 ******** ID: 8 Health: 0 Eccentricity: 0.007313728332 Time of Applicability(s): 503808 Orbital Inclination(rad): 0.9650201231 Rate of Right Ascen(r/s): -7.737465153e-09 SQRT(A) (m 1/2): 5153.676758 Right Ascen at Week(rad): -2.992922353 Argument of Perigee(rad): 0.1085744561 Mean Anom(rad): 1.261205224 Af0(s): -4.446678467e-05 Af1(s/s): 0 week: 149 ******** Week 149 almanac for PRN-9 ******** ID: 9 Health: 0 Eccentricity: 0.002242565155 Time of Applicability(s): 503808 Orbital Inclination(rad): 0.9545938475 Rate of Right Ascen(r/s): -7.828897533e-09 SQRT(A) (m 1/2): 5153.575684 Right Ascen at Week(rad): 0.15025971 Argument of Perigee(rad): 1.870591825 Mean Anom(rad): 1.632051821 Af0(s): -0.0002796131714 Af1(s/s): 0 week: 149 ******** Week 149 almanac for PRN-10 ******** ID: 10 Health: 0 Eccentricity: 0.007510662079 Time of Applicability(s): 503808 Orbital Inclination(rad): 0.9723065319 Rate of Right Ascen(r/s): -8.183198006e-09 SQRT(A) (m 1/2): 5153.624512 Right Ascen at Week(rad): -0.8806720027 Argument of Perigee(rad): -2.511771077 Mean Anom(rad): -3.032512614 Af0(s): -0.0002562492676 Af1(s/s): -1.091394e-11 week: 149 ******** Week 149 almanac for PRN-11 ******** ID: 11 Health: 255 Eccentricity: 0.0002679824829 Time of Applicability(s): 503808 Orbital Inclination(rad): 0.9618562877 Rate of Right Ascen(r/s): -8.034620388e-09 SQRT(A) (m 1/2): 5153.722168 Right Ascen at Week(rad): -1.869685518 Argument of Perigee(rad): 2.86879799 Mean Anom(rad): 1.12060817 Af0(s): -6.707701416e-05 Af1(s/s): 1.091394e-11 week: 149 ******** Week 149 almanac for PRN-12 ******** ID: 12 Health: 0 Eccentricity: 0.008693218231 Time of Applicability(s): 503808 Orbital Inclination(rad): 0.9700954424 Rate of Right Ascen(r/s): -8.080336578e-09 SQRT(A) (m 1/2): 5153.540039 Right Ascen at Week(rad): 2.335039338 Argument of Perigee(rad): 1.247441716 Mean Anom(rad): -2.317987659 Af0(s): -0.0001364150513 Af1(s/s): -7.275958e-12 week: 149 ******** Week 149 almanac for PRN-13 ******** ID: 13 Health: 0 Eccentricity: 0.005808353424 Time of Applicability(s): 503808 Orbital Inclination(rad): 0.9690288464 Rate of Right Ascen(r/s): -7.657461821e-09 SQRT(A) (m 1/2): 5153.635254 Right Ascen at Week(rad): 0.3030847931 Argument of Perigee(rad): 0.9560928497 Mean Anom(rad): 0.699412848 Af0(s): 0.0002087677856 Af1(s/s): 7.275958e-12 week: 149 ******** Week 149 almanac for PRN-14 ******** ID: 14 Health: 0 Eccentricity: 0.001445293427 Time of Applicability(s): 503808 Orbital Inclination(rad): 0.9534853067 Rate of Right Ascen(r/s): -8.263201338e-09 SQRT(A) (m 1/2): 5153.584961 Right Ascen at Week(rad): 2.303687482 Argument of Perigee(rad): 3.022681805 Mean Anom(rad): -2.257801758 Af0(s): -6.783068848e-05 Af1(s/s): -3.637979e-12 week: 149 ******** Week 149 almanac for PRN-15 ******** ID: 15 Health: 0 Eccentricity: 0.01394033432 Time of Applicability(s): 503808 Orbital Inclination(rad): 0.9304396422 Rate of Right Ascen(r/s): -8.126052768e-09 SQRT(A) (m 1/2): 5153.689941 Right Ascen at Week(rad): 0.04417610006 Argument of Perigee(rad): 1.075460224 Mean Anom(rad): 0.269167564 Af0(s): -6.556966553e-05 Af1(s/s): 3.637979e-12 week: 149 ******** Week 149 almanac for PRN-16 ******** ID: 16 Health: 0 Eccentricity: 0.01276874542 Time of Applicability(s): 503808 Orbital Inclination(rad): 0.9700534976 Rate of Right Ascen(r/s): -8.057478483e-09 SQRT(A) (m 1/2): 5153.546387 Right Ascen at Week(rad): 2.353657581 Argument of Perigee(rad): 0.7089650243 Mean Anom(rad): 2.11057181 Af0(s): -0.0003723151123 Af1(s/s): -3.637979e-12 week: 149 ******** Week 149 almanac for PRN-17 ******** ID: 17 Health: 0 Eccentricity: 0.01358795166 Time of Applicability(s): 503808 Orbital Inclination(rad): 0.980144215 Rate of Right Ascen(r/s): -7.531742299e-09 SQRT(A) (m 1/2): 5153.720703 Right Ascen at Week(rad): -2.911027403 Argument of Perigee(rad): -1.497684316 Mean Anom(rad): 1.172480764 Af0(s): 0.0004559729614 Af1(s/s): 3.637979e-12 week: 149 ******** Week 149 almanac for PRN-18 ******** ID: 18 Health: 0 Eccentricity: 0.002100467682 Time of Applicability(s): 503808 Orbital Inclination(rad): 0.970556835 Rate of Right Ascen(r/s): -7.954617056e-09 SQRT(A) (m 1/2): 5153.571777 Right Ascen at Week(rad): -1.905615723 Argument of Perigee(rad): 3.105901761 Mean Anom(rad): -0.7941215559 Af0(s): 0.0001876649048 Af1(s/s): -7.275958e-12 week: 149 ******** Week 149 almanac for PRN-19 ******** ID: 19 Health: 0 Eccentricity: 0.008982181549 Time of Applicability(s): 503808 Orbital Inclination(rad): 0.9789038477 Rate of Right Ascen(r/s): -7.543171346e-09 SQRT(A) (m 1/2): 5153.645508 Right Ascen at Week(rad): -2.866174943 Argument of Perigee(rad): 2.008845963 Mean Anom(rad): -2.697029593 Af0(s): 9.571663818e-05 Af1(s/s): 3.637979e-12 week: 149 ******** Week 149 almanac for PRN-20 ******** ID: 20 Health: 0 Eccentricity: 0.005146503448 Time of Applicability(s): 503808 Orbital Inclination(rad): 0.9416149319 Rate of Right Ascen(r/s): -8.526069431e-09 SQRT(A) (m 1/2): 5153.6875 Right Ascen at Week(rad): -1.032463821 Argument of Perigee(rad): 3.135584064 Mean Anom(rad): 0.01420317905 Af0(s): 0.0004084914795 Af1(s/s): 0 week: 149 ******** Week 149 almanac for PRN-21 ******** ID: 21 Health: 0 Eccentricity: 0.02460002899 Time of Applicability(s): 503808 Orbital Inclination(rad): 0.9593695611 Rate of Right Ascen(r/s): -7.886042771e-09 SQRT(A) (m 1/2): 5153.532715 Right Ascen at Week(rad): -2.004390079 Argument of Perigee(rad): -1.00233548 Mean Anom(rad): 1.362201905 Af0(s): 0.0001251099365 Af1(s/s): 0 week: 149 ******** Week 149 almanac for PRN-22 ******** ID: 22 Health: 0 Eccentricity: 0.01291942596 Time of Applicability(s): 503808 Orbital Inclination(rad): 0.9617424376 Rate of Right Ascen(r/s): -7.726036106e-09 SQRT(A) (m 1/2): 5153.616699 Right Ascen at Week(rad): 0.2515121792 Argument of Perigee(rad): -1.871835189 Mean Anom(rad): 1.051657681 Af0(s): 0.0001703303955 Af1(s/s): 7.275958e-12 week: 149 ******** Week 149 almanac for PRN-23 ******** ID: 23 Health: 0 Eccentricity: 0.001979351044 Time of Applicability(s): 503808 Orbital Inclination(rad): 0.9673390706 Rate of Right Ascen(r/s): -8.251772291e-09 SQRT(A) (m 1/2): 5153.645508 Right Ascen at Week(rad): -0.9055508792 Argument of Perigee(rad): 2.967522537 Mean Anom(rad): -1.71720648 Af0(s): 0 Af1(s/s): -3.637979e-12 week: 149 ******** Week 149 almanac for PRN-24 ******** ID: 24 Health: 0 Eccentricity: 0.01234817505 Time of Applicability(s): 503808 Orbital Inclination(rad): 0.9343285231 Rate of Right Ascen(r/s): -8.148910863e-09 SQRT(A) (m 1/2): 5153.63916 Right Ascen at Week(rad): 1.139072115 Argument of Perigee(rad): 0.8078176525 Mean Anom(rad): -0.7012865067 Af0(s): 0.0002163045288 Af1(s/s): -3.637979e-12 week: 149 ******** Week 149 almanac for PRN-25 ******** ID: 25 Health: 0 Eccentricity: 0.01051473618 Time of Applicability(s): 503808 Orbital Inclination(rad): 0.9574820457 Rate of Right Ascen(r/s): -8.240343243e-09 SQRT(A) (m 1/2): 5153.646484 Right Ascen at Week(rad): 2.258260154 Argument of Perigee(rad): 0.9816173762 Mean Anom(rad): -2.575063889 Af0(s): 0.0002268559692 Af1(s/s): 3.637979e-12 week: 149 ******** Week 149 almanac for PRN-26 ******** ID: 26 Health: 0 Eccentricity: 0.006889343262 Time of Applicability(s): 503808 Orbital Inclination(rad): 0.9383012937 Rate of Right Ascen(r/s): -8.434637051e-09 SQRT(A) (m 1/2): 5153.634766 Right Ascen at Week(rad): 2.211186868 Argument of Perigee(rad): 0.3705428716 Mean Anom(rad): 3.055446301 Af0(s): 0.0001454591431 Af1(s/s): 3.637979e-12 week: 149 ******** Week 149 almanac for PRN-27 ******** ID: 27 Health: 0 Eccentricity: 0.01026010513 Time of Applicability(s): 503808 Orbital Inclination(rad): 0.9737266625 Rate of Right Ascen(r/s): -7.646032773e-09 SQRT(A) (m 1/2): 5153.608398 Right Ascen at Week(rad): -2.973480569 Argument of Perigee(rad): 0.6401635891 Mean Anom(rad): 1.222635119 Af0(s): 9.873133545e-05 Af1(s/s): 1.455192e-11 week: 149 ******** Week 149 almanac for PRN-29 ******** ID: 29 Health: 0 Eccentricity: 0.001847267151 Time of Applicability(s): 503808 Orbital Inclination(rad): 0.9821635569 Rate of Right Ascen(r/s): -7.520313251e-09 SQRT(A) (m 1/2): 5153.710449 Right Ascen at Week(rad): -2.898014407 Argument of Perigee(rad): 2.249884305 Mean Anom(rad): 1.353516338 Af0(s): -0.0003806055298 Af1(s/s): -3.637979e-12 week: 149 ******** Week 149 almanac for PRN-30 ******** ID: 30 Health: 0 Eccentricity: 0.005515575409 Time of Applicability(s): 503808 Orbital Inclination(rad): 0.9359404014 Rate of Right Ascen(r/s): -8.171768958e-09 SQRT(A) (m 1/2): 5153.52002 Right Ascen at Week(rad): 1.234984114 Argument of Perigee(rad): -2.743047518 Mean Anom(rad): -1.628489884 Af0(s): -0.0004062304565 Af1(s/s): -3.637979e-12 week: 149 ******** Week 149 almanac for PRN-31 ******** ID: 31 Health: 0 Eccentricity: 0.01045894623 Time of Applicability(s): 503808 Orbital Inclination(rad): 0.9549893269 Rate of Right Ascen(r/s): -7.954617056e-09 SQRT(A) (m 1/2): 5153.637207 Right Ascen at Week(rad): 1.240011497 Argument of Perigee(rad): 0.3763548461 Mean Anom(rad): -2.120468158 Af0(s): -0.0001303856567 Af1(s/s): 0 week: 149 ******** Week 149 almanac for PRN-32 ******** ID: 32 Health: 0 Eccentricity: 0.005588054657 Time of Applicability(s): 503808 Orbital Inclination(rad): 0.9584527679 Rate of Right Ascen(r/s): -7.783181343e-09 SQRT(A) (m 1/2): 5153.73291 Right Ascen at Week(rad): 0.1614724504 Argument of Perigee(rad): -2.350948022 Mean Anom(rad): 1.863286317 Af0(s): -5.50182251e-05 Af1(s/s): -7.275958e-12 week: 149